TimePDT,TemperatureF,Dew PointF,Humidity,Sea Level PressureIn,VisibilityMPH,Wind Direction,Wind SpeedMPH,Gust SpeedMPH,PrecipitationIn,Events,Conditions,WindDirDegrees,DateUTC
12:53 AM,61.0,30.9,32,29.91,10.0,Calm,Calm,-,N/A,,Clear,0,2012-10-28 07:53:00
1:53 AM,60.1,30.0,32,29.90,10.0,East,3.5,-,N/A,,Clear,90,2012-10-28 08:53:00
2:53 AM,60.1,30.0,32,29.89,10.0,Calm,Calm,-,N/A,,Clear,0,2012-10-28 09:53:00
3:53 AM,60.1,28.9,31,29.88,10.0,Calm,Calm,-,N/A,,Clear,0,2012-10-28 10:53:00
4:53 AM,61.0,28.0,29,29.88,10.0,East,4.6,-,N/A,,Clear,80,2012-10-28 11:53:00
5:53 AM,60.1,28.0,30,29.88,10.0,East,4.6,-,N/A,,Clear,80,2012-10-28 12:53:00
6:53 AM,60.1,28.9,31,29.89,10.0,Calm,Calm,-,N/A,,Clear,0,2012-10-28 13:53:00
7:53 AM,61.0,30.0,31,29.92,10.0,Calm,Calm,-,N/A,,Clear,0,2012-10-28 14:53:00
8:53 AM,69.1,34.0,27,29.94,10.0,Calm,Calm,-,N/A,,Clear,0,2012-10-28 15:53:00
9:53 AM,73.9,24.1,16,29.94,10.0,South,3.5,-,N/A,,Clear,180,2012-10-28 16:53:00
10:53 AM,77.0,28.9,17,29.95,10.0,Calm,Calm,-,N/A,,Clear,0,2012-10-28 17:53:00
11:53 AM,79.0,25.0,14,29.94,10.0,WSW,4.6,-,N/A,,Clear,250,2012-10-28 18:53:00
12:53 PM,79.0,26.1,14,29.93,10.0,SW,4.6,-,N/A,,Clear,230,2012-10-28 19:53:00
1:53 PM,79.0,30.9,17,29.91,10.0,WSW,6.9,-,N/A,,Clear,250,2012-10-28 20:53:00
2:53 PM,78.1,30.9,18,29.91,10.0,WSW,4.6,-,N/A,,Clear,250,2012-10-28 21:53:00
3:53 PM,77.0,39.9,26,29.91,10.0,Calm,Calm,-,N/A,,Clear,0,2012-10-28 22:53:00
4:53 PM,75.9,48.9,38,29.91,10.0,SSW,4.6,-,N/A,,Clear,210,2012-10-28 23:53:00
5:53 PM,73.0,52.0,48,29.93,10.0,WSW,3.5,-,N/A,,Clear,250,2012-10-29 00:53:00
6:53 PM,69.1,48.0,47,29.95,10.0,Calm,Calm,-,N/A,,Clear,0,2012-10-29 01:53:00
7:53 PM,66.0,48.0,52,29.97,10.0,Calm,Calm,-,N/A,,Clear,0,2012-10-29 02:53:00
8:53 PM,64.9,48.0,54,29.99,10.0,Calm,Calm,-,N/A,,Clear,0,2012-10-29 03:53:00
9:53 PM,63.0,48.0,58,30.00,10.0,Calm,Calm,-,N/A,,Clear,0,2012-10-29 04:53:00
10:53 PM,63.0,46.0,54,30.01,10.0,Calm,Calm,-,N/A,,Clear,0,2012-10-29 05:53:00
11:53 PM,60.1,41.0,49,30.01,10.0,East,3.5,-,N/A,,Clear,90,2012-10-29 06:53:00